Regional Weather Roundup
Issued by NWS

Home | Current Version | Previous Version | Text Only | Print | Product List | Glossary On
Versions: 1 2 3 4 5 6 7 8 9 10 11 12 13 14 15 16 17 18 19 20 21 22 23 24 25 26 27 28 29 30 31 32 33 34 35 36 37 38 39 40 41 42 43 44 45 46 47 48 49 50
000
ASPQ40 PGUM 292114
RWRPQ
WEATHER ROUNDUP FOR THE MARIANAS AND MICRONESIA
NATIONAL WEATHER SERVICE TIYAN GU
700 AM CHST SAT MAY 30 2015

GUZ001>004-292200-
MARIANA ISLANDS-

CITY           SKY/WX    TMP DP  RH WIND       PRES   REMARKS
GUAM AIRPORT   SUNNY     81  75  83 NE3       29.94R
ANDERSEN AFB   SUNNY     79  75  89 E6        29.95R
ROTA AIRPORT   NOT AVBL
TINIAN AP      NOT AVBL
SAIPAN AP      MOSUNNY   81  75  83 SE8       29.94R

$$

PMZ161-292200-
REPUBLIC OF PALAU-

CITY           SKY/WX    TMP DP  RH WIND       PRES   REMARKS
KOROR AP       NOT AVBL
KOROR WSO      CLOUDY    81  77  89 CALM      29.88R

$$

PMZ171>174-292200-
FEDERATED STATES OF MICRONESIA-

CITY           SKY/WX    TMP DP  RH WIND       PRES   REMARKS
YAP AIRPORT    MOCLDY    79  75  89 VRB3      29.86R
CHUUK AP       CLOUDY    79  75  89 E8        29.89S
POHNPEI AP     NOT AVBL
POHNPEI WSO    CLOUDY    81  77  89 SE3       29.91R
KOSRAE AP      NOT AVBL

$$

PMZ181-292200-
REPUBLIC OF THE MARSHALL ISLANDS-

CITY           SKY/WX    TMP DP  RH WIND       PRES   REMARKS
KWAJALEIN AP   MOSUNNY   84  73  70 NE14      29.90R HX  91
MAJURO AP      MOSUNNY   84  77  79 NE9       29.89  HX  94
MAJURO WSO     MOSUNNY   84  77  79 E7        29.87R HX  94

$$



USA.gov is the U.S. government's official web portal to all federal, state and local government web resources and services.